QPF
0.00 0.00 0.00 0.00 0.00 0.00 0.02 0.02 0.02 0.04 0.06 0.05 0.03 0.02 0.01 0.02 0.03 0.03 0.02 0.01 0.01 0.01 0.01 0.01 0.01 0.01 0.02 0.03 0.05 0.06 0.07 0.06 0.11 0.12 0.07 0.06 0.06 0.08 0.09 0.08 0.07 0.02 0.02
0.00 0.00 0.00 0.00 0.00 0.00 0.00 0.00 0.01 0.03 0.03 0.02 0.01 0.01 0.01 0.00 0.00 0.00 0.00 0.00 0.00 0.00 0.00 0.00 0.00 0.00 0.00 0.00 0.00 0.01 0.03 0.03 0.05 0.07 0.08 0.05 0.03 0.03 0.04 0.06 0.04 0.03 0.04
0.01 0.00 0.00 0.00 0.00 0.00 0.00 0.00 0.01 0.01 0.01 0.00 0.00 0.00 0.00 0.00 0.00 0.00 0.02 0.02 0.00 0.00 0.00 0.00 0.00 0.00 0.00 0.00 0.00 0.00 0.01 0.02 0.02 0.05 0.08 0.05 0.03 0.03 0.03 0.03 0.02 0.01 0.02
0.03 0.02 0.01 0.00 0.00 0.00 0.00 0.00 0.00 0.00 0.00 0.00 0.00 0.00 0.00 0.00 0.00 0.01 0.02 0.01 0.00 0.00 0.00 0.00 0.00 0.00 0.01 0.01 0.01 0.01 0.02 0.03 0.03 0.03 0.05 0.06 0.06 0.06 0.04 0.04 0.02 0.03 0.03
0.04 0.02 0.00 0.00 0.00 0.00 0.00 0.00 0.00 0.01 0.00 0.00 0.00 0.00 0.00 0.00 0.00 0.00 0.00 0.00 0.00 0.00 0.00 0.00 0.00 0.01 0.01 0.01 0.02 0.02 0.03 0.05 0.05 0.06 0.06 0.06 0.07 0.06 0.06 0.03 0.03 0.04 0.02
0.05 0.02 0.00 0.00 0.00 0.00 0.00 0.00 0.01 0.01 0.01 0.00 0.00 0.00 0.00 0.00 0.00 0.00 0.00 0.00 0.00 0.00 0.00 0.00 0.01 0.01 0.01 0.01 0.01 0.02 0.03 0.04 0.05 0.06 0.07 0.08 0.08 0.06 0.06 0.03 0.02 0.03 0.04
0.16 0.08 0.02 0.00 0.00 0.00 0.00 0.00 0.00 0.01 0.01 0.00 0.00 0.00 0.00 0.00 0.00 0.00 0.00 0.00 0.00 0.00 0.00 0.00 0.00 0.00 0.00 0.01 0.01 0.01 0.02 0.02 0.03 0.04 0.06 0.08 0.09 0.11 0.09 0.06 0.04 0.06 0.08
0.16 0.12 0.05 0.01 0.01 0.00 0.00 0.00 0.00 0.00 0.00 0.00 0.00 0.00 0.01 0.00 0.00 0.00 0.00 0.00 0.00 0.00 0.00 0.00 0.00 0.00 0.00 0.00 0.01 0.01 0.01 0.02 0.03 0.03 0.06 0.07 0.07 0.10 0.10 0.08 0.11 0.12 0.13
0.06 0.06 0.04 0.02 0.01 0.01 0.01 0.01 0.00 0.00 0.00 0.00 0.00 0.01 0.01 0.01 0.00 0.00 0.00 0.00 0.00 0.00 0.00 0.00 0.00 0.00 0.00 0.00 0.01 0.01 0.01 0.02 0.05 0.06 0.08 0.08 0.08 0.09 0.11 0.12 0.13 0.16 0.15
0.06 0.06 0.05 0.04 0.03 0.02 0.01 0.01 0.01 0.00 0.00 0.00 0.00 0.01 0.02 0.02 0.01 0.00 0.00 0.00 0.00 0.00 0.00 0.00 0.00 0.00 0.00 0.00 0.01 0.01 0.02 0.03 0.07 0.09 0.10 0.10 0.09 0.09 0.08 0.08 0.12 0.19 0.21
0.04 0.04 0.03 0.03 0.02 0.01 0.01 0.01 0.01 0.01 0.00 0.00 0.00 0.00 0.02 0.03 0.03 0.03 0.02 0.01 0.00 0.00 0.00 0.00 0.00 0.00 0.00 0.00 0.01 0.02 0.02 0.03 0.04 0.05 0.06 0.07 0.07 0.08 0.10 0.13 0.17 0.19 0.23
0.01 0.01 0.02 0.02 0.02 0.02 0.02 0.02 0.01 0.01 0.00 0.00 0.00 0.00 0.01 0.01 0.03 0.05 0.05 0.04 0.02 0.01 0.00 0.00 0.00 0.00 0.00 0.00 0.01 0.02 0.02 0.02 0.02 0.02 0.04 0.05 0.06 0.07 0.13 0.19 0.20 0.20 0.24
0.00 0.01 0.01 0.02 0.03 0.03 0.02 0.02 0.01 0.01 0.00 0.00 0.00 0.00 0.00 0.00 0.01 0.04 0.06 0.06 0.05 0.03 0.01 0.00 0.00 0.00 0.00 0.00 0.01 0.01 0.01 0.02 0.01 0.02 0.03 0.04 0.05 0.08 0.16 0.23 0.21 0.20 0.21
0.00 0.00 0.01 0.01 0.01 0.01 0.01 0.00 0.00 0.00 0.00 0.00 0.00 0.00 0.00 0.00 0.00 0.01 0.02 0.04 0.05 0.05 0.03 0.01 0.00 0.00 0.00 0.00 0.00 0.00 0.00 0.00 0.01 0.03 0.04 0.04 0.05 0.06 0.09 0.19 0.28 0.28 0.25
0.01 0.01 0.01 0.01 0.01 0.02 0.02 0.02 0.03 0.03 0.03 0.03 0.02 0.02 0.01 0.01 0.01 0.00 0.01 0.02 0.03 0.05 0.05 0.03 0.01 0.01 0.01 0.00 0.00 0.00 0.00 0.00 0.00 0.01 0.03 0.03 0.03 0.05 0.06 0.09 0.18 0.24 0.26
0.04 0.04 0.04 0.03 0.02 0.02 0.02 0.02 0.02 0.02 0.02 0.02 0.02 0.02 0.01 0.01 0.01 0.01 0.01 0.01 0.03 0.06 0.07 0.05 0.02 0.01 0.00 0.00 0.00 0.00 0.00 0.00 0.00 0.01 0.03 0.02 0.01 0.01 0.02 0.02 0.05 0.08 0.11
0.02 0.01 0.01 0.00 0.00 0.00 0.00 0.00 0.00 0.00 0.00 0.00 0.00 0.00 0.00 0.00 0.01 0.02 0.02 0.01 0.02 0.05 0.08 0.08 0.05 0.02 0.01 0.00 0.00 0.00 0.00 0.00 0.00 0.00 0.00 0.00 0.00 0.00 0.00 0.00 0.00 0.01 0.02
0.00 0.00 0.00 0.00 0.00 0.00 0.00 0.00 0.00 0.00 0.00 0.00 0.00 0.00 0.00 0.00 0.01 0.02 0.04 0.04 0.04 0.05 0.08 0.09 0.08 0.05 0.02 0.00 0.00 0.00 0.00 0.00 0.00 0.00 0.00 0.00 0.00 0.00 0.00 0.00 0.00 0.00 0.00
0.00 0.00 0.00 0.00 0.00 0.00 0.00 0.00 0.00 0.00 0.00 0.00 0.00 0.00 0.00 0.00 0.00 0.01 0.03 0.06 0.07 0.08 0.12 0.14 0.14 0.11 0.05 0.00 0.00 0.00 0.00 0.00 0.00 0.00 0.00 0.00 0.00 0.00 0.00 0.00 0.00 0.00 0.00
0.00 0.00 0.00 0.00 0.00 0.00 0.00 0.00 0.00 0.00 0.00 0.00 0.00 0.00 0.00 0.00 0.00 0.00 0.01 0.05 0.09 0.11 0.16 0.21 0.22 0.18 0.10 0.02 0.00 0.00 0.00 0.00 0.00 0.00 0.00 0.00 0.00 0.00 0.00 0.00 0.00 0.00 0.00
0.00 0.00 0.00 0.00 0.00 0.00 0.00 0.00 0.00 0.00 0.00 0.00 0.00 0.00 0.00 0.01 0.01 0.01 0.02 0.03 0.06 0.11 0.17 0.23 0.26 0.26 0.18 0.06 0.00 0.00 0.00 0.00 0.00 0.00 0.00 0.00 0.00 0.00 0.00 0.00 0.00 0.00 0.00
0.00 0.00 0.00 0.00 0.00 0.00 0.00 0.00 0.00 0.00 0.00 0.01 0.01 0.01 0.00 0.00 0.00 0.01 0.02 0.02 0.04 0.09 0.18 0.29 0.35 0.36 0.29 0.14 0.02 0.00 0.00 0.00 0.00 0.00 0.00 0.00 0.00 0.00 0.00 0.00 0.00 0.00 0.00
0.00 0.00 0.00 0.00 0.00 0.00 0.00 0.00 0.00 0.00 0.01 0.01 0.01 0.01 0.01 0.01 0.01 0.01 0.01 0.01 0.03 0.06 0.16 0.30 0.43 0.49 0.45 0.27 0.06 0.01 0.00 0.00 0.00 0.00 0.00 0.00 0.00 0.00 0.00 0.00 0.00 0.00 0.00
0.00 0.00 0.00 0.00 0.00 0.00 0.00 0.01 0.01 0.01 0.01 0.02 0.02 0.02 0.02 0.02 0.01 0.02 0.01 0.01 0.02 0.04 0.13 0.27 0.40 0.49 0.49 0.32 0.11 0.02 0.00 0.00 0.00 0.00 0.00 0.00 0.00 0.00 0.00 0.00 0.00 0.00 0.00
0.00 0.00 0.00 0.00 0.01 0.01 0.01 0.01 0.01 0.02 0.03 0.03 0.03 0.02 0.02 0.02 0.02 0.02 0.02 0.02 0.03 0.04 0.09 0.21 0.38 0.44 0.39 0.25 0.11 0.03 0.00 0.00 0.00 0.00 0.00 0.00 0.00 0.00 0.00 0.00 0.00 0.00 0.00
0.00 0.01 0.01 0.01 0.01 0.01 0.02 0.02 0.04 0.05 0.05 0.04 0.03 0.02 0.02 0.02 0.02 0.02 0.02 0.03 0.04 0.03 0.03 0.09 0.21 0.29 0.24 0.15 0.09 0.03 0.00 0.00 0.00 0.00 0.00 0.00 0.00 0.00 0.00 0.00 0.00 0.00 0.00
MSLP
1008.69 1008.78 1008.87 1008.98 1009.11 1009.28 1009.50 1009.76 1010.06 1010.35 1010.63 1010.85 1011.00 1011.06 1011.06 1011.00 1010.92 1010.84 1010.79 1010.77 1010.79 1010.84 1010.90 1010.96 1011.00 1011.01 1010.98 1010.92 1010.83 1010.70 1010.53 1010.33 1010.09 1009.80 1009.49 1009.14 1008.80 1008.47 1008.18 1007.95 1007.80 1007.73 1007.76
1008.60 1008.71 1008.83 1008.96 1009.11 1009.28 1009.49 1009.73 1010.00 1010.28 1010.53 1010.75 1010.91 1011.00 1011.02 1010.99 1010.93 1010.87 1010.81 1010.78 1010.76 1010.76 1010.76 1010.74 1010.70 1010.62 1010.51 1010.38 1010.22 1010.05 1009.86 1009.65 1009.42 1009.17 1008.89 1008.58 1008.26 1007.94 1007.65 1007.40 1007.21 1007.11 1007.10
1008.64 1008.77 1008.91 1009.06 1009.20 1009.36 1009.53 1009.73 1009.95 1010.17 1010.39 1010.58 1010.73 1010.82 1010.87 1010.88 1010.86 1010.83 1010.80 1010.78 1010.76 1010.73 1010.69 1010.61 1010.50 1010.34 1010.15 1009.94 1009.71 1009.48 1009.25 1009.03 1008.81 1008.58 1008.33 1008.07 1007.79 1007.50 1007.22 1006.97 1006.77 1006.64 1006.59
1008.89 1009.03 1009.17 1009.31 1009.43 1009.54 1009.65 1009.77 1009.90 1010.05 1010.19 1010.33 1010.44 1010.53 1010.59 1010.63 1010.66 1010.68 1010.70 1010.72 1010.73 1010.72 1010.67 1010.57 1010.41 1010.19 1009.93 1009.64 1009.34 1009.04 1008.76 1008.51 1008.28 1008.06 1007.84 1007.61 1007.37 1007.12 1006.87 1006.64 1006.44 1006.30 1006.24
1009.42 1009.55 1009.67 1009.76 1009.82 1009.86 1009.87 1009.88 1009.90 1009.94 1009.99 1010.04 1010.10 1010.16 1010.21 1010.27 1010.34 1010.41 1010.49 1010.57 1010.64 1010.67 1010.65 1010.56 1010.39 1010.14 1009.83 1009.47 1009.10 1008.74 1008.40 1008.09 1007.83 1007.59 1007.38 1007.17 1006.97 1006.76 1006.55 1006.35 1006.18 1006.06 1006.00
1010.26 1010.35 1010.41 1010.44 1010.41 1010.33 1010.23 1010.12 1010.01 1009.92 1009.85 1009.80 1009.78 1009.78 1009.80 1009.85 1009.93 1010.04 1010.17 1010.31 1010.43 1010.52 1010.56 1010.50 1010.35 1010.11 1009.77 1009.38 1008.95 1008.52 1008.11 1007.74 1007.43 1007.16 1006.93 1006.73 1006.55 1006.38 1006.21 1006.06 1005.94 1005.85 1005.82
1011.38 1011.41 1011.39 1011.32 1011.18 1010.99 1010.76 1010.51 1010.28 1010.06 1009.87 1009.71 1009.59 1009.51 1009.46 1009.46 1009.51 1009.61 1009.75 1009.92 1010.09 1010.24 1010.33 1010.33 1010.22 1010.00 1009.68 1009.27 1008.81 1008.33 1007.85 1007.42 1007.04 1006.71 1006.45 1006.24 1006.07 1005.93 1005.81 1005.72 1005.65 1005.63 1005.65
1012.69 1012.64 1012.53 1012.35 1012.10 1011.79 1011.45 1011.09 1010.75 1010.42 1010.12 1009.85 1009.62 1009.43 1009.28 1009.19 1009.16 1009.20 1009.30 1009.45 1009.63 1009.79 1009.92 1009.97 1009.92 1009.75 1009.46 1009.07 1008.60 1008.08 1007.56 1007.06 1006.62 1006.24 1005.94 1005.70 1005.53 1005.41 1005.34 1005.31 1005.32 1005.37 1005.46
1014.06 1013.92 1013.71 1013.43 1013.08 1012.68 1012.26 1011.83 1011.41 1011.00 1010.62 1010.25 1009.91 1009.60 1009.32 1009.10 1008.94 1008.86 1008.86 1008.93 1009.06 1009.21 1009.35 1009.44 1009.43 1009.32 1009.08 1008.72 1008.27 1007.75 1007.21 1006.67 1006.18 1005.75 1005.41 1005.15 1004.97 1004.87 1004.83 1004.86 1004.94 1005.07 1005.24
1015.29 1015.07 1014.77 1014.41 1013.99 1013.55 1013.09 1012.63 1012.18 1011.74 1011.31 1010.88 1010.44 1010.00 1009.59 1009.20 1008.88 1008.63 1008.48 1008.42 1008.46 1008.55 1008.66 1008.76 1008.79 1008.73 1008.55 1008.25 1007.84 1007.35 1006.82 1006.27 1005.75 1005.29 1004.92 1004.63 1004.45 1004.36 1004.36 1004.43 1004.58 1004.78 1005.03
1016.23 1015.93 1015.56 1015.15 1014.70 1014.25 1013.80 1013.36 1012.94 1012.51 1012.07 1011.60 1011.09 1010.55 1010.00 1009.45 1008.95 1008.51 1008.18 1007.97 1007.87 1007.87 1007.93 1008.00 1008.06 1008.04 1007.93 1007.70 1007.36 1006.93 1006.43 1005.91 1005.40 1004.93 1004.54 1004.25 1004.07 1003.98 1004.01 1004.12 1004.31 1004.56 1004.87
1016.74 1016.38 1015.97 1015.53 1015.09 1014.66 1014.26 1013.88 1013.51 1013.13 1012.71 1012.24 1011.69 1011.08 1010.42 1009.73 1009.07 1008.47 1007.96 1007.59 1007.35 1007.24 1007.23 1007.28 1007.33 1007.36 1007.30 1007.15 1006.90 1006.54 1006.11 1005.64 1005.17 1004.73 1004.36 1004.07 1003.89 1003.82 1003.86 1003.99 1004.20 1004.49 1004.82
1016.79 1016.37 1015.93 1015.48 1015.07 1014.69 1014.35 1014.05 1013.76 1013.44 1013.07 1012.62 1012.07 1011.42 1010.69 1009.92 1009.14 1008.41 1007.78 1007.28 1006.92 1006.71 1006.63 1006.65 1006.70 1006.75 1006.75 1006.68 1006.51 1006.25 1005.90 1005.51 1005.11 1004.72 1004.38 1004.12 1003.96 1003.90 1003.94 1004.08 1004.30 1004.59 1004.93
1016.39 1015.93 1015.46 1015.03 1014.64 1014.31 1014.04 1013.80 1013.58 1013.33 1013.01 1012.60 1012.07 1011.43 1010.69 1009.89 1009.06 1008.27 1007.57 1006.99 1006.56 1006.29 1006.16 1006.15 1006.19 1006.26 1006.31 1006.30 1006.22 1006.05 1005.80 1005.51 1005.19 1004.87 1004.60 1004.39 1004.25 1004.21 1004.26 1004.40 1004.61 1004.88 1005.19
1015.65 1015.15 1014.67 1014.24 1013.87 1013.58 1013.34 1013.15 1012.97 1012.76 1012.49 1012.12 1011.64 1011.04 1010.34 1009.56 1008.76 1007.99 1007.29 1006.70 1006.25 1005.96 1005.80 1005.76 1005.81 1005.89 1005.97 1006.01 1006.00 1005.92 1005.77 1005.58 1005.35 1005.13 1004.94 1004.79 1004.70 1004.69 1004.75 1004.88 1005.08 1005.32 1005.60
1014.70 1014.16 1013.67 1013.24 1012.88 1012.59 1012.37 1012.18 1012.01 1011.81 1011.56 1011.23 1010.80 1010.26 1009.64 1008.95 1008.23 1007.53 1006.89 1006.36 1005.94 1005.66 1005.50 1005.46 1005.50 1005.58 1005.68 1005.75 1005.80 1005.79 1005.73 1005.64 1005.52 1005.40 1005.30 1005.22 1005.20 1005.23 1005.31 1005.45 1005.63 1005.85 1006.09
1013.68 1013.12 1012.62 1012.18 1011.80 1011.49 1011.24 1011.02 1010.82 1010.61 1010.35 1010.04 1009.65 1009.19 1008.66 1008.09 1007.49 1006.92 1006.39 1005.94 1005.59 1005.35 1005.21 1005.17 1005.20 1005.27 1005.37 1005.47 1005.54 1005.60 1005.62 1005.62 1005.60 1005.59 1005.59 1005.61 1005.66 1005.74 1005.87 1006.02 1006.20 1006.40 1006.62
1012.71 1012.15 1011.63 1011.18 1010.78 1010.42 1010.12 1009.84 1009.57 1009.31 1009.03 1008.72 1008.36 1007.97 1007.54 1007.09 1006.63 1006.19 1005.79 1005.45 1005.17 1004.98 1004.87 1004.83 1004.85 1004.91 1005.00 1005.10 1005.20 1005.30 1005.39 1005.47 1005.56 1005.65 1005.75 1005.86 1006.00 1006.16 1006.33 1006.52 1006.72 1006.92 1007.13
1011.86 1011.30 1010.79 1010.32 1009.88 1009.48 1009.11 1008.75 1008.42 1008.09 1007.76 1007.44 1007.11 1006.77 1006.42 1006.08 1005.74 1005.43 1005.14 1004.89 1004.69 1004.55 1004.45 1004.41 1004.42 1004.47 1004.54 1004.64 1004.76 1004.90 1005.05 1005.21 1005.39 1005.58 1005.78 1005.99 1006.21 1006.45 1006.68 1006.91 1007.14 1007.37 1007.59
1011.13 1010.59 1010.08 1009.60 1009.13 1008.69 1008.25 1007.83 1007.42 1007.04 1006.67 1006.32 1006.00 1005.70 1005.41 1005.15 1004.90 1004.68 1004.47 1004.30 1004.15 1004.04 1003.96 1003.93 1003.93 1003.97 1004.04 1004.15 1004.29 1004.47 1004.68 1004.91 1005.16 1005.44 1005.73 1006.03 1006.34 1006.64 1006.93 1007.22 1007.49 1007.74 1007.98
1010.47 1009.95 1009.46 1008.97 1008.49 1008.01 1007.53 1007.06 1006.61 1006.17 1005.77 1005.41 1005.09 1004.80 1004.55 1004.33 1004.14 1003.97 1003.82 1003.69 1003.58 1003.49 1003.43 1003.40 1003.41 1003.46 1003.56 1003.69 1003.87 1004.09 1004.35 1004.65 1004.97 1005.32 1005.68 1006.05 1006.42 1006.78 1007.13 1007.46 1007.77 1008.06 1008.32
1009.83 1009.33 1008.85 1008.37 1007.88 1007.38 1006.88 1006.38 1005.90 1005.45 1005.04 1004.67 1004.34 1004.06 1003.82 1003.62 1003.45 1003.30 1003.17 1003.06 1002.98 1002.91 1002.88 1002.88 1002.93 1003.02 1003.16 1003.34 1003.57 1003.85 1004.17 1004.52 1004.90 1005.29 1005.70 1006.11 1006.52 1006.92 1007.30 1007.66 1008.00 1008.32 1008.62
1009.16 1008.66 1008.18 1007.69 1007.20 1006.70 1006.20 1005.70 1005.23 1004.78 1004.37 1004.01 1003.68 1003.40 1003.17 1002.96 1002.79 1002.64 1002.52 1002.42 1002.36 1002.33 1002.35 1002.41 1002.52 1002.68 1002.90 1003.16 1003.46 1003.80 1004.17 1004.56 1004.97 1005.38 1005.81 1006.23 1006.65 1007.06 1007.46 1007.85 1008.21 1008.55 1008.87
1008.41 1007.89 1007.39 1006.89 1006.39 1005.89 1005.40 1004.93 1004.48 1004.06 1003.67 1003.32 1003.01 1002.74 1002.49 1002.28 1002.10 1001.95 1001.84 1001.76 1001.73 1001.76 1001.85 1002.00 1002.21 1002.47 1002.79 1003.14 1003.52 1003.92 1004.33 1004.74 1005.16 1005.57 1005.98 1006.39 1006.80 1007.20 1007.60 1007.99 1008.36 1008.72 1009.06
1007.58 1007.02 1006.47 1005.95 1005.43 1004.93 1004.46 1004.01 1003.60 1003.21 1002.86 1002.54 1002.25 1001.99 1001.74 1001.53 1001.35 1001.20 1001.11 1001.07 1001.10 1001.21 1001.39 1001.65 1001.98 1002.36 1002.79 1003.24 1003.69 1004.14 1004.58 1004.99 1005.39 1005.77 1006.14 1006.51 1006.89 1007.27 1007.65 1008.04 1008.43 1008.80 1009.16
1006.69 1006.06 1005.46 1004.89 1004.34 1003.84 1003.38 1002.96 1002.58 1002.23 1001.92 1001.64 1001.37 1001.12 1000.89 1000.68 1000.51 1000.39 1000.33 1000.35 1000.46 1000.66 1000.96 1001.34 1001.80 1002.30 1002.83 1003.36 1003.88 1004.36 1004.79 1005.19 1005.54 1005.87 1006.19 1006.51 1006.84 1007.19 1007.57 1007.96 1008.36 1008.77 1009.16
Thickness
5805 5804 5801 5797 5791 5784 5776 5769 5764 5759 5756 5753 5750 5748 5748 5748 5748 5746 5742 5740 5738 5736 5733 5732 5730 5727 5726 5724 5723 5723 5723 5723 5726 5723 5727 5735 5741 5742 5742 5740 5738 5740 5740
5795 5793 5791 5788 5783 5775 5768 5762 5757 5755 5752 5749 5745 5743 5742 5744 5743 5741 5738 5736 5733 5730 5730 5725 5724 5723 5719 5717 5717 5715 5716 5721 5723 5720 5720 5725 5734 5740 5744 5742 5739 5739 5739
5787 5783 5780 5777 5773 5766 5762 5759 5754 5750 5747 5745 5743 5739 5736 5736 5738 5736 5735 5733 5729 5725 5722 5720 5719 5717 5716 5716 5713 5711 5709 5712 5718 5721 5717 5718 5723 5733 5740 5741 5740 5737 5736
5776 5773 5769 5766 5763 5761 5759 5753 5748 5744 5742 5739 5736 5734 5729 5729 5731 5730 5731 5727 5724 5721 5718 5716 5714 5713 5713 5711 5708 5707 5705 5704 5708 5714 5717 5718 5721 5719 5722 5731 5735 5734 5731
5763 5759 5758 5757 5756 5754 5752 5748 5743 5738 5736 5734 5731 5727 5727 5728 5729 5726 5723 5720 5721 5716 5713 5711 5709 5708 5709 5707 5703 5700 5699 5700 5701 5705 5709 5711 5712 5713 5710 5716 5725 5728 5731
5749 5745 5746 5746 5744 5743 5741 5740 5735 5732 5731 5729 5727 5723 5722 5720 5720 5718 5717 5716 5717 5714 5711 5707 5704 5703 5703 5701 5698 5697 5696 5696 5697 5698 5701 5703 5706 5710 5711 5712 5716 5721 5725
5724 5721 5723 5726 5727 5728 5729 5730 5729 5726 5726 5725 5723 5721 5719 5716 5713 5713 5713 5710 5712 5711 5706 5702 5698 5697 5696 5695 5694 5694 5694 5694 5693 5692 5695 5699 5703 5707 5708 5708 5714 5716 5718
5708 5704 5704 5705 5707 5709 5711 5715 5717 5718 5719 5719 5719 5718 5716 5714 5714 5710 5708 5707 5705 5704 5699 5695 5692 5691 5691 5691 5691 5691 5691 5691 5690 5691 5691 5692 5696 5701 5704 5706 5707 5705 5704
5696 5694 5693 5693 5693 5693 5694 5696 5698 5702 5707 5710 5710 5710 5709 5707 5707 5704 5702 5702 5699 5696 5692 5689 5688 5687 5687 5687 5686 5686 5685 5686 5687 5688 5688 5687 5691 5694 5699 5702 5703 5699 5696
5685 5683 5682 5680 5680 5681 5681 5682 5681 5682 5687 5692 5695 5699 5699 5698 5698 5698 5698 5695 5692 5689 5685 5682 5682 5682 5682 5682 5681 5681 5682 5683 5685 5684 5683 5682 5685 5688 5692 5696 5698 5698 5695
5671 5669 5668 5666 5665 5665 5665 5665 5665 5665 5667 5668 5671 5676 5681 5686 5689 5689 5689 5687 5685 5682 5679 5677 5676 5676 5677 5677 5676 5678 5679 5679 5679 5680 5679 5677 5677 5680 5685 5689 5693 5693 5690
5659 5657 5655 5652 5650 5648 5647 5647 5646 5646 5647 5648 5650 5655 5660 5667 5673 5677 5678 5677 5675 5673 5673 5673 5672 5672 5672 5671 5671 5673 5673 5672 5671 5672 5671 5670 5670 5671 5675 5680 5684 5685 5683
5643 5642 5640 5637 5634 5631 5629 5628 5627 5627 5626 5627 5629 5633 5638 5645 5654 5661 5665 5666 5666 5665 5666 5667 5668 5668 5667 5666 5666 5667 5667 5666 5665 5664 5663 5661 5661 5662 5664 5669 5672 5673 5672
5623 5621 5618 5616 5612 5609 5606 5605 5605 5603 5603 5603 5605 5610 5616 5623 5633 5644 5650 5654 5656 5657 5659 5661 5663 5663 5661 5661 5661 5661 5661 5661 5660 5658 5656 5655 5654 5655 5656 5658 5659 5659 5656
5608 5605 5602 5600 5597 5594 5591 5589 5587 5584 5583 5586 5589 5592 5597 5604 5613 5623 5631 5638 5643 5648 5650 5652 5656 5657 5656 5656 5654 5653 5655 5656 5655 5653 5651 5650 5647 5647 5649 5650 5649 5648 5644
5601 5600 5597 5595 5591 5587 5584 5583 5581 5578 5575 5576 5580 5582 5583 5587 5593 5600 5608 5617 5627 5634 5639 5642 5647 5649 5652 5648 5642 5642 5647 5649 5649 5647 5645 5645 5642 5639 5639 5640 5640 5640 5637
5591 5586 5582 5578 5576 5574 5572 5571 5570 5567 5564 5563 5565 5568 5568 5571 5578 5583 5589 5598 5606 5616 5623 5629 5636 5639 5641 5637 5633 5629 5635 5640 5642 5640 5639 5641 5636 5634 5633 5631 5631 5631 5632
5569 5563 5558 5556 5554 5553 5552 5551 5551 5548 5546 5544 5544 5546 5547 5551 5556 5561 5567 5575 5585 5594 5602 5613 5622 5627 5629 5625 5623 5621 5625 5631 5634 5634 5632 5630 5628 5627 5627 5627 5626 5625 5623
5545 5541 5538 5536 5535 5534 5534 5535 5536 5534 5533 5531 5531 5531 5532 5533 5535 5538 5544 5552 5561 5571 5580 5592 5603 5612 5616 5613 5612 5610 5618 5621 5625 5626 5625 5624 5620 5614 5617 5619 5617 5615 5612
5529 5526 5526 5525 5525 5526 5526 5526 5527 5527 5527 5527 5526 5526 5525 5523 5522 5522 5524 5529 5537 5548 5560 5572 5584 5595 5603 5601 5601 5599 5611 5613 5617 5616 5614 5612 5612 5606 5608 5612 5611 5608 5607
5523 5522 5522 5522 5521 5519 5518 5518 5519 5519 5519 5519 5519 5520 5520 5519 5517 5515 5513 5515 5520 5529 5539 5553 5567 5579 5587 5589 5590 5591 5602 5608 5609 5611 5610 5604 5599 5600 5600 5604 5605 5603 5603
5522 5522 5521 5519 5515 5511 5508 5509 5508 5507 5505 5505 5507 5510 5512 5514 5516 5514 5511 5511 5512 5517 5526 5537 5549 5561 5568 5576 5578 5581 5586 5596 5602 5604 5603 5595 5590 5591 5591 5592 5590 5592 5596
5520 5518 5516 5514 5509 5503 5498 5498 5498 5495 5493 5493 5493 5496 5501 5506 5509 5510 5511 5511 5512 5516 5525 5531 5536 5543 5551 5559 5564 5567 5573 5581 5591 5593 5587 5583 5581 5581 5581 5578 5580 5586 5592
5517 5514 5510 5505 5500 5494 5490 5489 5487 5483 5480 5480 5480 5481 5487 5494 5500 5504 5509 5512 5516 5520 5525 5526 5529 5534 5539 5545 5551 5558 5565 5569 5576 5577 5570 5570 5573 5577 5571 5570 5575 5583 5588
5513 5508 5502 5495 5490 5487 5485 5482 5478 5472 5467 5465 5466 5468 5472 5479 5489 5498 5503 5508 5513 5518 5519 5521 5524 5527 5533 5540 5546 5556 5563 5568 5571 5568 5569 5571 5572 5573 5571 5572 5576 5580 5582
5508 5503 5495 5486 5482 5480 5479 5476 5470 5463 5457 5454 5454 5456 5462 5468 5477 5488 5498 5503 5505 5508 5509 5512 5516 5523 5530 5537 5541 5548 5557 5560 5559 5564 5567 5570 5572 5573 5573 5573 5575 5578 5580